Flag for Tunisia Weather past 2 weeks in Tunis, Tunisia

Now
81 °F

Passing clouds.


Feels Like: 86 °F
Forecast: 73 / 91 °F
Wind: 6 mph from Southeast

Location: Tunis-Carthage

Current Time: Sep 16, 2014 at 2:59:33 AM

Latest Report: Sep 16, 2014 at 2:00 AM


Visibility: N/A

Pressure: 29.89 "Hg

Humidity: 84%

Dew point: 75 °F

Location of TunisLocation

Historic Weather in Tunis — Graph

°F

Tunis temperature yesterday

Maximum temperature yesterday: 99 °F (at 2:30 PM)
Minimum temperature yesterday: 73 °F (at 3:30 AM)
Average temperature yesterday: 83 °F

Past Weeks' High & Low Weather Summary

 TemperatureHumidityPressure
High99 °F (Sep 15, 2:30 PM)94% (Sep 8, 3:30 AM)30.07 "Hg (Sep 8, 3:30 AM)
Low64 °F (Sep 4, 5:30 AM)29% (Sep 15, 2:30 PM)29.80 "Hg (Sep 1, 7:00 PM)
Average80 °F64%29.92 "Hg
* Reported Sep 1 2:00 AM — Sep 16 2:00 AM, Tunis, Weather by CustomWeather, © 2014

Note: Actual official high and low records may vary slightly from our data, if they occured in-between our weather recording intervals... More about our weather records

Advertising

Tunis weather history for previous 24 hours

 ConditionsComfort  
Time TempWeatherWind HumidityBarometerVisibility
2:00 AM
Sep 16
81 °FPassing clouds.6 mph84%29.89 "HgN/A
1:30 AM81 °FPassing clouds.6 mph84%29.89 "HgN/A
1:00 AM81 °FPassing clouds.6 mph84%29.89 "HgN/A
12:30 AM81 °FPassing clouds.7 mph84%29.89 "HgN/A
12:00 AM81 °FPassing clouds.7 mph89%29.92 "HgN/A
11:30 PM
Sep 15
81 °FPassing clouds.3 mph84%29.92 "HgN/A
11:00 PM77 °FPassing clouds.3 mph79%29.92 "HgN/A
10:30 PM77 °FPassing clouds.No wind79%29.92 "HgN/A
10:00 PM77 °FPassing clouds.No wind83%29.95 "HgN/A
9:30 PM77 °FPassing clouds.3 mph83%29.95 "HgN/A
9:00 PM81 °FPassing clouds.No wind74%29.95 "HgN/A
8:30 PM81 °FPassing clouds.5 mph74%29.95 "HgN/A
8:00 PM81 °FPassing clouds.7 mph74%29.92 "HgN/A
7:30 PM81 °FPassing clouds.7 mph79%29.92 "HgN/A
7:00 PM81 °FPassing clouds.8 mph79%29.92 "HgN/A
6:00 PM82 °FPassing clouds.10 mph74%29.92 "HgN/A
5:30 PM86 °FPassing clouds.13 mph66%29.92 "HgN/A
5:00 PM88 °FPassing clouds.7 mph59%29.89 "HgN/A
4:30 PM90 °FPassing clouds.10 mph55%29.89 "HgN/A
4:00 PM93 °FPassing clouds.8 mph53%29.89 "HgN/A
3:30 PM95 °FPassing clouds.8 mph41%29.86 "HgN/A
3:00 PM95 °FScattered clouds.8 mph34%29.89 "HgN/A
2:30 PM99 °FPassing clouds.3 mph29%29.89 "HgN/A
2:00 PM97 °FPassing clouds.6 mph30%29.92 "HgN/A
1:30 PM97 °FPassing clouds.7 mph32%29.92 "HgN/A
1:00 PM93 °FPassing clouds.3 mph47%29.92 "HgN/A
12:30 PM93 °FPassing clouds.5 mph44%29.95 "HgN/A
12:00 PM91 °FPassing clouds.5 mph52%29.95 "HgN/A
11:30 AM90 °FPassing clouds.6 mph55%29.95 "HgN/A
11:00 AM88 °FPassing clouds.6 mph62%29.98 "HgN/A
10:30 AM88 °FPassing clouds.6 mph62%29.98 "HgN/A
10:00 AM86 °FPassing clouds.6 mph66%29.98 "HgN/A
9:30 AM86 °FPassing clouds.6 mph66%29.98 "HgN/A
9:00 AM84 °FPassing clouds.8 mph70%29.98 "HgN/A
8:30 AM82 °FPassing clouds.7 mph74%29.95 "Hg5 mi
8:00 AM81 °FPassing clouds.5 mph84%29.95 "Hg5 mi
7:30 AM79 °FPassing clouds.No wind89%29.95 "Hg5 mi
7:00 AM75 °FPassing clouds.No wind94%29.95 "Hg5 mi
6:30 AM73 °FPassing clouds.2 mph94%29.95 "Hg5 mi
6:00 AM73 °FPassing clouds.2 mph94%29.95 "Hg5 mi
5:30 AM73 °FPassing clouds.No wind89%29.95 "HgN/A
5:00 AM73 °FPassing clouds.3 mph94%29.92 "HgN/A
4:30 AM73 °FPassing clouds.3 mph94%29.92 "HgN/A
4:00 AM73 °FPassing clouds.3 mph89%29.92 "HgN/A
3:30 AM73 °FPassing clouds.3 mph94%29.92 "HgN/A
2:30 AM77 °FPassing clouds.3 mph83%29.95 "HgN/A
Weather by CustomWeather, © 2014

See weather overviewHow to use our weather pages